#timestamp,LO_Frequency,Hit,StdDev 
1512910815.8,286047016.1,N
1512910835.6,286047021.5,Y
1512910855.4,286047021.1,P
1512910875.3,286047016.5,N
1512910895.1,286047021.6,N
1512910915.8,286047024.7,Y
1512910935.7,286047008.9,P
1512910955.5,286047008.3,N
1512910975.3,286047010.3,P
1512910995.2,286047008.9,Y
1512911015.9,286046998.5,P
1512911035.7,286047000.7,N
1512911055.6,286046996.8,N
1512911075.4,286046992.4,N
1512911095.2,286046990.6,N
1512911115.1,286046987.8,N
1512911116.0,286046987.8,N
1512911135.8,286046983.3,N
1512911155.6,286046981.6,N
1512911175.5,286046983.6,N
1512911195.3,286046980.6,N
1512911215.1,286046984.7,N
1512911235.8,286046984.9,N
1512911255.7,286046987.6,N
1512911275.5,286046991.5,N
1512911295.3,286046991.8,N
1512911315.2,286046992.8,N
1512911335.9,286046985.4,N
1512911355.7,286046987.6,N
1512911375.6,286046988.6,N
1512911395.4,286046986.4,N
1512911415.2,286046985.6,N
1512911435.1,286046989.6,N
1512911436.0,286046989.6,N
1512911455.8,286046991.0,N
1512911475.6,286046992.7,N
1512911495.5,286046993.8,N
1512911515.3,286046996.2,N
1512911535.1,286046996.2,N
1512911555.8,286046996.3,N
1512911575.7,286046993.9,N
1512911595.5,286046993.4,N
1512911615.3,286046994.7,N
1512911635.2,286046992.4,N
1512911655.9,286046992.6,N
1512911675.7,286046991.6,N
1512911695.6,286046985.5,Y
1512911715.4,286046996.2,P
1512911735.2,286046991.7,N
1512911755.1,286046990.5,P
1512911756.0,286046990.5,Y
1512911775.8,286046998.7,P
1512911795.6,286046995.8,N
1512911815.5,286046993.4,N
1512911835.3,286046995.2,N
1512911855.1,286046996.6,N
1512911875.9,286046998.6,N
1512911895.7,286046998.8,N
1512911915.5,286046998.9,N
1512911935.4,286046996.8,N
1512911955.2,286047000.7,N
1512911975.0,286047000.0,N
1512911975.9,286047000.0,N
1512911995.8,286046998.2,N
1512912015.6,286046997.8,N
1512912035.4,286046999.2,N
1512912055.2,286046995.0,N
1512912075.1,286046995.9,N
1512912076.0,286046995.9,N
1512912095.8,286046997.6,N
1512912115.6,286046995.3,N
1512912135.5,286046999.3,N
1512912155.3,286046996.6,N
1512912175.1,286046998.8,N
1512912195.9,286047000.2,N
1512912215.7,286047000.8,N
1512912235.5,286047000.0,N
1512912255.4,286047003.4,N
1512912275.2,286047008.4,Y
1512912295.0,286047010.1,P
1512912295.9,286047010.1,N
1512912315.8,286047009.2,N
1512912335.6,286047006.0,N
1512912355.4,286047003.2,N
1512912375.3,286047002.6,N
1512912395.1,286047005.4,N
1512912396.0,286047005.4,N
1512912415.8,286047011.4,Y
1512912435.7,286047006.5,P
1512912455.5,286047008.9,P
1512912475.3,286047006.3,P
1512912495.2,286047004.6,Y
1512912515.9,286046998.1,P
1512912535.7,286047002.0,N
1512912555.6,286047001.9,N
1512912575.4,286046998.1,N
1512912595.2,286046995.9,N
1512912615.0,286046995.4,N
1512912615.9,286046995.4,N
1512912635.8,286046994.8,N
1512912655.6,286046996.0,N
1512912675.4,286046995.8,N
1512912695.3,286046994.9,N
1512912715.1,286046996.3,N
1512912716.0,286046996.3,N
1512912735.8,286046993.4,N
1512912755.7,286046997.2,N
1512912775.5,286046997.8,N
1512912795.3,286046993.4,N
1512912815.2,286046992.2,N
1512912835.9,286046990.1,N
1512912855.7,286046993.5,N
1512912875.5,286046994.3,N
1512912895.4,286046993.7,N
1512912915.2,286046992.2,N
1512912935.0,286046992.3,N
1512912935.9,286046992.3,N
1512912955.8,286046990.3,N
1512912975.6,286046993.3,N
1512912995.4,286046997.3,N
1512913015.3,286046997.0,N
1512913035.1,286047000.8,N
1512913055.8,286046999.9,N
1512913075.7,286047004.1,N
1512913095.5,286046999.7,N
1512913115.3,286046998.8,N
1512913135.2,286046997.7,N
1512913155.9,286046994.2,N
1512913175.7,286046991.9,N
1512913195.6,286046992.0,N
1512913215.4,286046996.3,N
1512913235.2,286046997.9,N
1512913255.0,286046995.7,N
1512913256.0,286046995.7,N
1512913275.8,286046996.4,N
1512913295.6,286046993.6,N
1512913315.4,286046995.6,N
1512913335.3,286046999.6,N
1512913355.1,286046999.1,N
1512913375.8,286046996.1,N
1512913395.7,286046998.0,N
1512913415.5,286046999.4,N
1512913435.3,286047001.0,N
1512913455.2,286047001.3,N
1512913475.9,286047001.2,N
1512913495.7,286046997.5,N
1512913515.6,286047000.3,N
1512913535.4,286047000.3,N
1512913555.2,286047001.7,N
1512913575.1,286047004.5,N
1512913576.0,286047004.5,N
1512913595.8,286047001.6,N
1512913615.6,286047003.1,N
1512913635.5,286047007.4,N
1512913655.3,286047004.9,N
1512913675.1,286047005.0,N
1512913695.8,286047009.2,N
1512913715.7,286047008.3,N
1512913735.5,286047012.3,N
1512913755.3,286047006.3,N
1512913775.2,286047007.9,N
1512913795.9,286047007.3,N
1512913815.7,286047010.4,N
1512913835.6,286047006.9,N
1512913855.4,286047001.6,N
1512913875.2,286047002.3,N
1512913895.1,286047006.9,N
1512913896.0,286047006.9,N
1512913915.8,286047005.7,N
1512913935.6,286047002.2,N
1512913955.5,286046996.7,N
1512913975.3,286046999.0,N
1512913995.1,286046995.4,N
1512914015.8,286046995.2,N
1512914035.7,286046997.8,N
1512914055.5,286046996.9,N
1512914075.3,286046998.8,N
1512914095.2,286047001.6,N
1512914115.0,286047002.9,N
1512914115.9,286047002.9,N
1512914135.7,286047005.1,N
1512914155.6,286047004.6,N
1512914175.4,286047004.7,N
1512914195.2,286047008.3,N
1512914215.1,286047004.7,N
1512914216.0,286047004.7,N
1512914235.8,286047001.7,N
1512914255.6,286047000.6,N
1512914275.5,286047000.2,N
1512914295.3,286047007.3,N
1512914315.1,286047005.1,N
1512914335.9,286047005.7,N
1512914355.7,286047002.4,N
1512914375.5,286047000.4,N
1512914395.3,286046996.5,N
